KLM677 EHAM-CYYC

Flight info

Callsign KLM677
Flight time N/A
Altitude 40000
Route BERGI M90 LONAM DCT WECOW DCT CUTEL DCT ODMIX DCT FORTY DCT SOSAR/M084F400 DCT 66N010W 70N020W 73N040W 73N060W DCT MEDPA/N0488F400 DCT 7130N08000W 6930N09000W 65N100W DCT YMM DCT IGVUX DCT DUDNI BIRKO6
Aircraft A359/H-SDE2E3GHIJ3J4J5LM1ORWXY/LB1D1

Departure

Time N/A
Airport Amsterdam Airport Schiphol (EHAM)

Arrival

Time 2026-05-04 15:17
Airport Calgary International Airport (CYYC)
Time Latitude Longitude Altitude Speed Heading
2026-05-04 13:04 65.93558 -98.30793 40253 ft 489 kts 217°
2026-05-04 13:04 65.90860 -98.35895 40251 ft 489 kts 217°
2026-05-04 13:05 65.85503 -98.45986 40242 ft 489 kts 217°
2026-05-04 13:05 65.80096 -98.56114 40246 ft 489 kts 217°
2026-05-04 13:06 65.74686 -98.66194 40239 ft 489 kts 217°
2026-05-04 13:06 65.69264 -98.76241 40241 ft 490 kts 217°
2026-05-04 13:07 65.63835 -98.86249 40251 ft 491 kts 217°
2026-05-04 13:07 65.58392 -98.96226 40238 ft 491 kts 217°
2026-05-04 13:08 65.52955 -99.06141 40238 ft 491 kts 217°
2026-05-04 13:08 65.47492 -99.16048 40243 ft 491 kts 217°
2026-05-04 13:09 65.42025 -99.25911 40235 ft 492 kts 217°
2026-05-04 13:09 65.36547 -99.35739 40235 ft 492 kts 217°
2026-05-04 13:10 65.31056 -99.45541 40228 ft 492 kts 216°
2026-05-04 13:10 65.25581 -99.55259 40230 ft 493 kts 216°
2026-05-04 13:11 65.20060 -99.65009 40240 ft 494 kts 216°
2026-05-04 13:11 65.14534 -99.74717 40228 ft 494 kts 216°
2026-05-04 13:12 65.08999 -99.84389 40230 ft 493 kts 216°
2026-05-04 13:12 65.03461 -99.94014 40236 ft 493 kts 216°
2026-05-04 13:13 64.97925 -100.03631 40228 ft 494 kts 217°
2026-05-04 13:13 64.92527 -100.13523 40228 ft 495 kts 218°
2026-05-04 13:14 64.87113 -100.23576 40228 ft 496 kts 218°
2026-05-04 13:14 64.81667 -100.33556 40227 ft 496 kts 217°
2026-05-04 13:15 64.76207 -100.43448 40234 ft 495 kts 217°
2026-05-04 13:15 64.70739 -100.53283 40225 ft 495 kts 217°
2026-05-04 13:16 64.65266 -100.63077 40227 ft 496 kts 217°
2026-05-04 13:16 64.59781 -100.72845 40232 ft 497 kts 217°
2026-05-04 13:17 64.54278 -100.82597 40228 ft 497 kts 217°
2026-05-04 13:17 64.48770 -100.92305 40228 ft 497 kts 217°
2026-05-04 13:18 64.43249 -101.01985 40236 ft 497 kts 217°
2026-05-04 13:18 64.37713 -101.11643 40235 ft 498 kts 217°
2026-05-04 13:19 64.32208 -101.21197 40243 ft 498 kts 217°
2026-05-04 13:19 64.26661 -101.30772 40240 ft 497 kts 217°
2026-05-04 13:20 64.21120 -101.40292 40238 ft 496 kts 217°
2026-05-04 13:20 64.15584 -101.49755 40248 ft 496 kts 217°
2026-05-04 13:21 64.10977 -101.57592 40238 ft 496 kts 217°
2026-05-04 13:21 64.05420 -101.66999 40240 ft 497 kts 216°
2026-05-04 13:22 63.99880 -101.76333 40242 ft 497 kts 216°
2026-05-04 13:22 63.94306 -101.85675 40239 ft 496 kts 216°
2026-05-04 13:23 63.88764 -101.94918 40252 ft 495 kts 216°
2026-05-04 13:23 63.83175 -102.04192 40244 ft 496 kts 216°
2026-05-04 13:24 63.77616 -102.13370 40244 ft 497 kts 216°
2026-05-04 13:24 63.72024 -102.22556 40254 ft 497 kts 216°
2026-05-04 13:25 63.63626 -102.36266 40242 ft 497 kts 216°
2026-05-04 13:25 63.58007 -102.45383 40252 ft 497 kts 216°
2026-05-04 13:26 63.52418 -102.54405 40241 ft 498 kts 216°
2026-05-04 13:26 63.46780 -102.63460 40243 ft 499 kts 216°
2026-05-04 13:27 63.41098 -102.72544 40240 ft 502 kts 216°
2026-05-04 13:27 63.35414 -102.81583 40240 ft 502 kts 216°
2026-05-04 13:28 63.29722 -102.90593 40248 ft 502 kts 216°
2026-05-04 13:28 63.24016 -102.99580 40225 ft 503 kts 216°
2026-05-04 13:29 63.18359 -103.08443 40237 ft 500 kts 216°
2026-05-04 13:29 63.12674 -103.17309 40250 ft 499 kts 215°
2026-05-04 13:30 63.06988 -103.26133 40241 ft 499 kts 215°
2026-05-04 13:30 63.01297 -103.34922 40248 ft 499 kts 215°
2026-05-04 13:31 62.95599 -103.43678 40238 ft 499 kts 215°
2026-05-04 13:31 62.89938 -103.52337 40239 ft 499 kts 215°
2026-05-04 13:32 62.84222 -103.61038 40244 ft 499 kts 215°
2026-05-04 13:32 62.78533 -103.69656 40240 ft 499 kts 215°
2026-05-04 13:33 62.72809 -103.78285 40251 ft 500 kts 215°
2026-05-04 13:33 62.67083 -103.86875 40242 ft 500 kts 215°
2026-05-04 13:34 62.61348 -103.95439 40242 ft 500 kts 215°
2026-05-04 13:34 62.55606 -104.03972 40252 ft 500 kts 215°
2026-05-04 13:35 62.46979 -104.16715 40248 ft 500 kts 214°
2026-05-04 13:36 62.41266 -104.25104 40251 ft 500 kts 214°
2026-05-04 13:36 62.35504 -104.33526 40249 ft 500 kts 214°
2026-05-04 13:37 62.29737 -104.41916 40250 ft 500 kts 214°
2026-05-04 13:37 62.23960 -104.50279 40242 ft 500 kts 214°
2026-05-04 13:38 62.18183 -104.58604 40241 ft 500 kts 214°
2026-05-04 13:38 62.12401 -104.66898 40248 ft 500 kts 214°
2026-05-04 13:39 62.06606 -104.75171 40243 ft 501 kts 214°
2026-05-04 13:39 62.00842 -104.83363 40248 ft 501 kts 214°
2026-05-04 13:40 61.95024 -104.91591 40242 ft 501 kts 214°
2026-05-04 13:40 61.89205 -104.99784 40241 ft 501 kts 214°
2026-05-04 13:41 61.83387 -105.07938 40246 ft 501 kts 214°
2026-05-04 13:41 61.77591 -105.16023 40237 ft 501 kts 214°
2026-05-04 13:42 61.68837 -105.28166 40248 ft 502 kts 214°
2026-05-04 13:42 61.62979 -105.36243 40243 ft 502 kts 214°
2026-05-04 13:43 61.57163 -105.44226 40247 ft 502 kts 214°
2026-05-04 13:43 61.51303 -105.52233 40237 ft 502 kts 214°
2026-05-04 13:44 61.45433 -105.60218 40240 ft 502 kts 214°
2026-05-04 13:44 61.39563 -105.68166 40244 ft 503 kts 214°
2026-05-04 13:45 61.33714 -105.76051 40237 ft 503 kts 214°
2026-05-04 13:45 61.27823 -105.83954 40249 ft 504 kts 214°
2026-05-04 13:46 61.21928 -105.91828 40237 ft 504 kts 213°
2026-05-04 13:46 61.16023 -105.99680 40238 ft 504 kts 213°
2026-05-04 13:47 61.10112 -106.07505 40243 ft 504 kts 213°
2026-05-04 13:47 61.04196 -106.15300 40234 ft 504 kts 214°
2026-05-04 13:48 60.98301 -106.23035 40242 ft 505 kts 213°
2026-05-04 13:48 60.92368 -106.30784 40240 ft 505 kts 213°
2026-05-04 13:49 60.86428 -106.38507 40234 ft 505 kts 213°
2026-05-04 13:49 60.80480 -106.46205 40243 ft 505 kts 213°
2026-05-04 13:50 60.74529 -106.53874 40241 ft 505 kts 213°
2026-05-04 13:50 60.68562 -106.61529 40252 ft 506 kts 213°
2026-05-04 13:51 60.62621 -106.69118 40231 ft 506 kts 213°
2026-05-04 13:51 60.56667 -106.76689 40235 ft 506 kts 213°
2026-05-04 13:52 60.47696 -106.88034 40239 ft 506 kts 213°
2026-05-04 13:53 60.41698 -106.95578 40246 ft 506 kts 213°
2026-05-04 13:53 60.35720 -107.03065 40232 ft 506 kts 213°
2026-05-04 13:54 60.26709 -107.14286 40239 ft 507 kts 213°
2026-05-04 13:55 60.17713 -107.25417 40236 ft 507 kts 213°
2026-05-04 13:55 60.08707 -107.36487 40228 ft 507 kts 213°
2026-05-04 13:56 60.02648 -107.43895 40222 ft 507 kts 213°
2026-05-04 13:57 59.93631 -107.54859 40228 ft 508 kts 213°
2026-05-04 13:58 59.81537 -107.69456 40227 ft 508 kts 213°
2026-05-04 13:58 59.72458 -107.80330 40218 ft 508 kts 213°
2026-05-04 13:59 59.66396 -107.87551 40219 ft 508 kts 213°
2026-05-04 14:00 59.57328 -107.98299 40218 ft 509 kts 213°
2026-05-04 14:00 59.48204 -108.09042 40213 ft 509 kts 213°
2026-05-04 14:01 59.42124 -108.16164 40212 ft 509 kts 213°
2026-05-04 14:02 59.33028 -108.26763 40205 ft 509 kts 212°
2026-05-04 14:02 59.26935 -108.33825 40197 ft 508 kts 213°
2026-05-04 14:03 59.20846 -108.40854 40202 ft 508 kts 213°
2026-05-04 14:03 59.14754 -108.47856 40203 ft 508 kts 213°
2026-05-04 14:04 59.05604 -108.58317 40205 ft 508 kts 213°
2026-05-04 14:04 58.99505 -108.65255 40203 ft 508 kts 213°
2026-05-04 14:05 58.90378 -108.75583 40200 ft 508 kts 212°
2026-05-04 14:06 58.84271 -108.82458 40201 ft 508 kts 212°
2026-05-04 14:06 58.78151 -108.89319 40202 ft 508 kts 212°
2026-05-04 14:07 58.72034 -108.96149 40197 ft 508 kts 212°
2026-05-04 14:07 58.65908 -109.02961 40197 ft 508 kts 212°
2026-05-04 14:08 58.59806 -109.09718 40194 ft 508 kts 212°
2026-05-04 14:08 58.53671 -109.16485 40195 ft 508 kts 212°
2026-05-04 14:09 58.44496 -109.26553 40192 ft 508 kts 212°
2026-05-04 14:10 58.35283 -109.36601 40184 ft 508 kts 212°
2026-05-04 14:10 58.30165 -109.42157 40179 ft 508 kts 212°
2026-05-04 14:11 58.24023 -109.48800 40178 ft 508 kts 212°
2026-05-04 14:11 58.13779 -109.59819 40172 ft 509 kts 212°
2026-05-04 14:12 58.08649 -109.65311 40173 ft 509 kts 212°
2026-05-04 14:13 57.99399 -109.75166 40168 ft 509 kts 212°
2026-05-04 14:13 57.93230 -109.81705 40165 ft 509 kts 212°
2026-05-04 14:14 57.87052 -109.88229 40146 ft 509 kts 212°
2026-05-04 14:14 57.77762 -109.97989 40169 ft 510 kts 212°
2026-05-04 14:15 57.65396 -110.10891 40167 ft 510 kts 212°
2026-05-04 14:16 57.56084 -110.20540 40167 ft 510 kts 212°
2026-05-04 14:17 57.46769 -110.30136 40167 ft 511 kts 212°
2026-05-04 14:18 57.37468 -110.39660 40172 ft 511 kts 212°
2026-05-04 14:19 57.24983 -110.52358 40166 ft 511 kts 212°
2026-05-04 14:19 57.18742 -110.58668 40137 ft 511 kts 212°
2026-05-04 14:20 57.12490 -110.64966 40173 ft 512 kts 212°
2026-05-04 14:20 57.06270 -110.71207 40167 ft 512 kts 212°
2026-05-04 14:21 56.96879 -110.80585 40179 ft 512 kts 212°
2026-05-04 14:21 56.90620 -110.86805 40170 ft 512 kts 212°
2026-05-04 14:22 56.84336 -110.93025 40128 ft 512 kts 212°
2026-05-04 14:22 56.78096 -110.99177 40150 ft 512 kts 212°
2026-05-04 14:23 56.68669 -111.08430 40137 ft 513 kts 212°
2026-05-04 14:24 56.62046 -111.13401 40138 ft 519 kts 199°
2026-05-04 14:24 56.55056 -111.16788 40139 ft 520 kts 197°
2026-05-04 14:25 56.48051 -111.19870 40148 ft 521 kts 196°
2026-05-04 14:25 56.37492 -111.24513 40159 ft 520 kts 197°
2026-05-04 14:26 56.30468 -111.27634 40166 ft 520 kts 197°
2026-05-04 14:26 56.23436 -111.30759 40171 ft 520 kts 197°
2026-05-04 14:27 56.16400 -111.33874 40167 ft 520 kts 197°
2026-05-04 14:27 56.09405 -111.36956 40180 ft 520 kts 197°
2026-05-04 14:28 56.02359 -111.40049 40160 ft 520 kts 197°
2026-05-04 14:28 55.95327 -111.43123 40143 ft 519 kts 196°
2026-05-04 14:29 55.81329 -111.49210 40160 ft 519 kts 196°
2026-05-04 14:30 55.74306 -111.52247 40162 ft 519 kts 196°
2026-05-04 14:31 55.63787 -111.56774 40158 ft 518 kts 196°
2026-05-04 14:32 55.49795 -111.62758 40141 ft 518 kts 196°
2026-05-04 14:32 55.42773 -111.65746 40156 ft 520 kts 197°
2026-05-04 14:33 55.35728 -111.68732 40153 ft 520 kts 197°
2026-05-04 14:33 55.28681 -111.71705 40154 ft 520 kts 196°
2026-05-04 14:34 55.21626 -111.74672 40150 ft 520 kts 196°
2026-05-04 14:34 55.14584 -111.77624 40154 ft 520 kts 196°
2026-05-04 14:35 55.07581 -111.80548 40153 ft 520 kts 197°
2026-05-04 14:35 55.00541 -111.83478 40154 ft 519 kts 196°
2026-05-04 14:36 54.93497 -111.86398 40155 ft 519 kts 196°
2026-05-04 14:36 54.86468 -111.89302 40154 ft 519 kts 196°
2026-05-04 14:37 54.82950 -111.90752 40151 ft 519 kts 196°
2026-05-04 14:37 54.77102 -111.93156 40153 ft 519 kts 196°
2026-05-04 14:38 54.65409 -111.97940 40149 ft 519 kts 196°
2026-05-04 14:38 54.59524 -112.00338 40143 ft 519 kts 196°
2026-05-04 14:39 54.51318 -112.03669 40151 ft 521 kts 197°
2026-05-04 14:39 54.44273 -112.06519 40148 ft 522 kts 197°
2026-05-04 14:40 54.33632 -112.10802 40143 ft 522 kts 197°
2026-05-04 14:40 54.26585 -112.13626 40141 ft 522 kts 197°
2026-05-04 14:41 54.19492 -112.16459 40145 ft 522 kts 197°
2026-05-04 14:42 54.05332 -112.22085 40141 ft 524 kts 197°
2026-05-04 14:42 53.98270 -112.24877 40148 ft 525 kts 197°
2026-05-04 14:43 53.91145 -112.27683 40145 ft 525 kts 197°
2026-05-04 14:43 53.84020 -112.30479 40141 ft 525 kts 197°
2026-05-04 14:44 53.76900 -112.33263 40141 ft 525 kts 197°
2026-05-04 14:44 53.69833 -112.36018 40142 ft 525 kts 197°
2026-05-04 14:45 53.62715 -112.38783 40131 ft 525 kts 197°
2026-05-04 14:45 53.55596 -112.41539 40138 ft 525 kts 197°
2026-05-04 14:46 53.48451 -112.44294 40134 ft 525 kts 197°
2026-05-04 14:46 53.41324 -112.47034 40136 ft 525 kts 197°
2026-05-04 14:47 53.34204 -112.49761 40136 ft 525 kts 197°
2026-05-04 14:47 53.27127 -112.52462 40140 ft 524 kts 197°
2026-05-04 14:48 53.20008 -112.55171 40105 ft 524 kts 197°
2026-05-04 14:48 53.12895 -112.57869 40130 ft 524 kts 197°
2026-05-04 14:49 53.05770 -112.60561 40140 ft 524 kts 197°
2026-05-04 14:49 52.98657 -112.63239 40139 ft 524 kts 197°
2026-05-04 14:50 52.91591 -112.65891 40140 ft 523 kts 197°
2026-05-04 14:50 52.84457 -112.68562 39885 ft 525 kts 197°
2026-05-04 14:51 52.80917 -112.69879 39497 ft 520 kts 197°
2026-05-04 14:51 52.77367 -112.71201 38786 ft 523 kts 198°
2026-05-04 14:51 52.73818 -112.72607 38129 ft 521 kts 200°
2026-05-04 14:51 52.70374 -112.74139 37510 ft 519 kts 201°
2026-05-04 14:52 52.66880 -112.75707 36860 ft 520 kts 201°
2026-05-04 14:52 52.63388 -112.77258 36189 ft 521 kts 201°
2026-05-04 14:52 52.59876 -112.78804 35503 ft 523 kts 201°
2026-05-04 14:52 52.56344 -112.80349 34815 ft 526 kts 202°
2026-05-04 14:53 52.52812 -112.81885 34282 ft 525 kts 202°
2026-05-04 14:53 52.49283 -112.83415 33689 ft 523 kts 202°
2026-05-04 14:53 52.45781 -112.84929 33134 ft 520 kts 202°
2026-05-04 14:53 52.42285 -112.86439 32593 ft 517 kts 202°
2026-05-04 14:54 52.38818 -112.87933 32075 ft 514 kts 202°
2026-05-04 14:54 52.35367 -112.89419 31469 ft 511 kts 202°
2026-05-04 14:54 52.31939 -112.90891 30998 ft 507 kts 202°
2026-05-04 14:54 52.28542 -112.92349 30479 ft 504 kts 202°
2026-05-04 14:55 52.25150 -112.93804 29932 ft 501 kts 202°
2026-05-04 14:55 52.21784 -112.95249 29382 ft 497 kts 202°
2026-05-04 14:55 52.18453 -112.96671 28869 ft 493 kts 202°
2026-05-04 14:55 52.15189 -112.98055 28353 ft 488 kts 202°
2026-05-04 14:56 52.11915 -112.99443 27839 ft 484 kts 202°
2026-05-04 14:56 52.08668 -113.00819 27324 ft 480 kts 202°
2026-05-04 14:56 52.05442 -113.02184 26802 ft 476 kts 202°
2026-05-04 14:56 52.02239 -113.03538 26276 ft 473 kts 202°
2026-05-04 14:57 52.00133 -113.04428 25944 ft 471 kts 202°
2026-05-04 14:57 51.95905 -113.06212 25246 ft 467 kts 202°
2026-05-04 14:57 51.92807 -113.07518 24707 ft 462 kts 202°
2026-05-04 14:57 51.90709 -113.08402 24376 ft 460 kts 201°
2026-05-04 14:58 51.87627 -113.09696 23861 ft 457 kts 201°
2026-05-04 14:58 51.84591 -113.10969 23288 ft 453 kts 201°
2026-05-04 14:58 51.81557 -113.12240 22749 ft 448 kts 201°
2026-05-04 14:58 51.78547 -113.13498 22235 ft 443 kts 202°
2026-05-04 14:59 51.75570 -113.14741 21723 ft 438 kts 202°
2026-05-04 14:59 51.72635 -113.15965 21209 ft 433 kts 202°
2026-05-04 14:59 51.66865 -113.18368 20200 ft 424 kts 202°
2026-05-04 15:00 51.64048 -113.19539 19706 ft 420 kts 202°
2026-05-04 15:00 51.62142 -113.20330 19378 ft 417 kts 202°
2026-05-04 15:00 51.61235 -113.20706 19212 ft 415 kts 202°
2026-05-04 15:01 51.60293 -113.21097 19052 ft 414 kts 202°
2026-05-04 15:01 51.49599 -113.25588 16981 ft 394 kts 205°
2026-05-04 15:01 51.47235 -113.27522 16533 ft 371 kts 226°
2026-05-04 15:01 51.45449 -113.30361 16098 ft 356 kts 238°
2026-05-04 15:02 51.43883 -113.33383 15667 ft 351 kts 239°
2026-05-04 15:02 51.42340 -113.36405 15229 ft 348 kts 239°
2026-05-04 15:02 51.40827 -113.39353 14822 ft 345 kts 238°
2026-05-04 15:02 51.39302 -113.42307 14417 ft 342 kts 238°
2026-05-04 15:03 51.37786 -113.45234 13985 ft 340 kts 238°
2026-05-04 15:03 51.36282 -113.48129 13533 ft 337 kts 237°
2026-05-04 15:03 51.34787 -113.50996 13110 ft 333 kts 237°
2026-05-04 15:03 51.33314 -113.53817 12702 ft 329 kts 237°
2026-05-04 15:04 51.31860 -113.56601 12251 ft 325 kts 237°
2026-05-04 15:04 51.30421 -113.59350 11883 ft 320 kts 237°
2026-05-04 15:04 51.29003 -113.62058 11480 ft 317 kts 237°
2026-05-04 15:04 51.27597 -113.64745 11054 ft 315 kts 237°
2026-05-04 15:05 51.26202 -113.67424 10720 ft 309 kts 237°
2026-05-04 15:05 51.24846 -113.69998 10590 ft 296 kts 237°
2026-05-04 15:05 51.23545 -113.72462 10469 ft 285 kts 237°
2026-05-04 15:05 51.22291 -113.74842 10333 ft 277 kts 238°
2026-05-04 15:06 51.21068 -113.77172 10019 ft 276 kts 237°
2026-05-04 15:06 51.19823 -113.79553 9679 ft 285 kts 237°
2026-05-04 15:06 51.18528 -113.82018 9474 ft 291 kts 236°
2026-05-04 15:07 51.15063 -113.84903 9165 ft 288 kts 186°
2026-05-04 15:07 51.13095 -113.84952 9016 ft 277 kts 182°
2026-05-04 15:07 51.11216 -113.84916 8778 ft 272 kts 182°
2026-05-04 15:07 51.09358 -113.84886 8630 ft 262 kts 182°
2026-05-04 15:08 51.07571 -113.84869 8539 ft 250 kts 183°
2026-05-04 15:08 51.05877 -113.84856 8452 ft 234 kts 183°
2026-05-04 15:08 51.04291 -113.84854 8135 ft 226 kts 184°
2026-05-04 15:08 51.02708 -113.84862 7810 ft 229 kts 184°
2026-05-04 15:09 51.01112 -113.84871 7663 ft 229 kts 184°
2026-05-04 15:09 50.99519 -113.84879 7562 ft 229 kts 183°
2026-05-04 15:09 50.97932 -113.84886 7462 ft 227 kts 183°
2026-05-04 15:10 50.94775 -113.84901 7252 ft 226 kts 183°
2026-05-04 15:10 50.93202 -113.84958 7185 ft 225 kts 189°
2026-05-04 15:10 50.90880 -113.87396 7102 ft 186 kts 262°
2026-05-04 15:11 50.90904 -113.89244 6966 ft 160 kts 292°
2026-05-04 15:11 50.91209 -113.90903 6735 ft 156 kts 295°
2026-05-04 15:11 50.91538 -113.92530 6552 ft 154 kts 296°
2026-05-04 15:11 50.91931 -113.94106 6516 ft 153 kts 302°
2026-05-04 15:12 50.92477 -113.95536 6523 ft 150 kts 312°
2026-05-04 15:12 50.93167 -113.96753 6519 ft 147 kts 321°
2026-05-04 15:12 50.93690 -113.97429 6520 ft 146 kts 327°
2026-05-04 15:12 50.94562 -113.98240 6525 ft 145 kts 335°
2026-05-04 15:13 50.95513 -113.98769 6507 ft 146 kts 346°
2026-05-04 15:13 50.96485 -113.98961 6464 ft 135 kts 354°
2026-05-04 15:13 50.97404 -113.99017 6232 ft 131 kts 355°
2026-05-04 15:13 50.98316 -113.99051 5938 ft 132 kts 356°
2026-05-04 15:14 50.99236 -113.99052 5730 ft 132 kts 357°
2026-05-04 15:14 51.00165 -113.99049 5642 ft 135 kts 358°
2026-05-04 15:14 51.01102 -113.99048 5538 ft 134 kts 357°
2026-05-04 15:14 51.02029 -113.99049 5433 ft 136 kts 357°
2026-05-04 15:15 51.02972 -113.99049 5273 ft 135 kts 357°
2026-05-04 15:15 51.03908 -113.99048 5103 ft 134 kts 358°
2026-05-04 15:15 51.04813 -113.99045 4934 ft 126 kts 358°
2026-05-04 15:16 51.06539 -113.99042 4564 ft 123 kts 358°
2026-05-04 15:16 51.07405 -113.99040 4360 ft 126 kts 358°
2026-05-04 15:16 51.09126 -113.99068 3932 ft 121 kts 360°
2026-05-04 15:17 51.09966 -113.99048 3793 ft 122 kts
2026-05-04 15:17 51.11692 -113.99044 3548 ft 118 kts 360°
2026-05-04 15:17 51.12298 -113.99039 3556 ft 47 kts 359°
2026-05-04 15:18 51.12523 -113.99044 3555 ft 31 kts
2026-05-04 15:18 51.12752 -113.99039 3557 ft 35 kts
2026-05-04 15:18 51.12977 -113.99094 3560 ft 29 kts 336°
2026-05-04 15:19 51.13057 -113.99292 3558 ft 10 kts 189°
2026-05-04 15:19 51.12974 -113.99303 3556 ft 14 kts 179°
2026-05-04 15:19 51.12750 -113.99301 3559 ft 14 kts 191°
2026-05-04 15:20 51.12704 -113.99411 3557 ft 12 kts 259°
2026-05-04 15:20 51.12700 -113.99564 3556 ft 15 kts 270°
2026-05-04 15:20 51.12701 -113.99741 3556 ft 15 kts 271°
2026-05-04 15:20 51.12732 -113.99853 3560 ft 10 kts 333°
2026-05-04 15:21 51.12802 -113.99877 3560 ft 11 kts 355°
2026-05-04 15:21 51.12877 -113.99883 3556 ft 6 kts 359°
2026-05-04 15:21 51.12930 -113.99885 3561 ft 2 kts 359°
2026-05-04 15:22 51.12939 -113.99885 3559 ft 1 kts 359°
2026-05-04 15:22 51.12940 -113.99885 3559 ft 0 kts 359°